sat.trackr.live / text

‹ back to catalog

STARLINK-5555

NORAD 55386 · 2023-013BH

PAYLOAD ACTIVE UNKNOWN

§ Identity

Operator
Country
US
Launch date
2023-01-26
Launch site
AFETR
Launch vehicle
Mass (kg)
RCS (m²)

Purposes: comms

External: N2YO · Heavens-Above · Gunter

§ Orbital elements

Epoch: 2026-09-20T13:37:35.359968Z

Period
94.27 min
Inclination
43.0043°
Eccentricity
0.0003131
Mean motion
15.27580812 rev/d
Perigee alt
480.9 km
Apogee alt
485.2 km
Semi-major
6,861.2 km
B*
-4.5366e-6
RAAN
297.8492°
Arg perigee
246.0526°
Mean anomaly
113.9997°
Rev number
20,130

§ Raw data

STARLINK-55551 55386U 23013BH  26263.56777037 -.00000388  00000+0 -45366-5 0  99962 55386  43.0043 297.8492 0003131 246.0526 113.9997 15.27580812201301

JSON: /api/v1/satellites/55386 · /tle

For live sub-satellite position, see the globe view (requires WebGL).

§ Visibility from observer

Set your observer location to see the next 7 days of passes ≥ 10°. The values pass through the URL so the page stays shareable.

No JS? Fill the form by hand. The geolocation button needs JavaScript.